N0MDC Weather Reports


time (UTC)temp
C
wind
direction
speed
KPH
gust
KPH
rain 1hr
cm
rain 24hr
cm
rain mn
cm
humidity
%
barometer
mb
20260906180007 22 154 4.8 16.1 0.00 0.00 0.00 38 1019.8
20260906174510 22 177 3.2 17.7 0.00 0.00 0.00 39 1019.9
20260906173010 22 121 6.4 16.1 0.00 0.00 0.00 38 1020.1
20260906171507 23 146 9.7 17.7 0.00 0.00 0.00 39 1020.1
20260906170014 22 150 4.8 12.9 0.00 0.00 0.00 39 1020.4
20260906164512 22 140 6.4 19.3 0.00 0.00 0.00 40 1020.2
20260906163009 22 139 6.4 17.7 0.00 0.00 0.00 41 1020.2
20260906161512 22 140 8.0 17.7 0.00 0.00 0.00 42 1020.2
20260906160014 21 134 8.0 17.7 0.00 0.00 0.00 43 1020.3
20260906154505 21 86 3.2 17.7 0.00 0.00 0.00 55 1021.3
20260906154503 21 86 3.2 17.7 0.00 0.00 0.00 45 1020.0
20260906153009 21 115 8.0 12.9 0.00 0.00 0.00 45 1020.2
20260906151505 21 155 6.4 17.7 0.00 0.00 0.00 45 1020.5
20260906150026 21 181 4.8 16.1 0.00 0.00 0.00 56 1021.3
20260906150010 21 146 6.4 17.7 0.00 0.00 0.00 46 1020.0
20260906144525 20 157 8.0 16.1 0.00 0.00 0.00 47 1020.1
20260906144502 20 165 9.7 16.1 0.00 0.00 0.00 57 1021.3
20260906143009 20 142 6.4 19.3 0.00 0.00 0.00 48 1020.2
20260906141505 20 121 8.0 22.5 0.00 0.00 0.00 48 1019.9
20260906140009 20 130 8.0 19.3 0.00 0.00 0.00 49 1019.9
20260906134522 20 160 4.8 19.3 0.00 0.00 0.00 49 1020.2
20260906133021 20 153 8.0 20.9 0.00 0.00 0.00 49 1020.3
20260906131523 20 130 4.8 14.5 0.00 0.00 0.00 49 1020.1
20260906130007 19 171 4.8 17.7 0.00 0.00 0.00 49 1019.7
20260906124513 19 144 6.4 16.1 0.00 0.00 0.00 49 1019.5
20260906123031 19 156 8.0 17.7 0.00 0.00 0.00 49 1019.5
20260906121525 19 126 4.8 12.9 0.00 0.00 0.00 49 1019.5
20260906120030 18 134 4.8 14.5 0.00 0.00 0.00 49 1019.3
20260906114509 18 144 3.2 12.9 0.00 0.00 0.00 49 1019.1
20260906113017 18 120 1.6 11.3 0.00 0.00 0.00 48 1019.1
20260906111529 18 127 1.6 11.3 0.00 0.00 0.00 48 1019.0
20260906110025 18 148 1.6 6.4 0.00 0.00 0.00 48 1019.0
20260906104532 18 112 1.6 6.4 0.00 0.00 0.00 48 1019.0
20260906103016 18 127 1.6 6.4 0.00 0.00 0.00 47 1019.0
20260906101521 19 111 3.2 12.9 0.00 0.00 0.00 48 1018.7
20260906100028 19 151 3.2 8.0 0.00 0.00 0.00 47 1018.5
20260906094527 19 140 1.6 4.8 0.00 0.00 0.00 47 1018.5
20260906093033 19 98 0.0 3.2 0.00 0.00 0.00 47 1018.3
20260906091515 20 119 0.0 9.7 0.00 0.00 0.00 47 1018.1
20260906090023 20 130 3.2 9.7 0.00 0.00 0.00 47 1018.0
20260906084528 20 115 1.6 8.0 0.00 0.00 0.00 47 1017.6
20260906083034 20 119 1.6 12.9 0.00 0.00 0.00 47 1017.5
20260906081535 20 166 1.6 11.3 0.00 0.00 0.00 47 1017.7
20260906080026 20 130 0.0 9.7 0.00 0.00 0.00 47 1017.8
20260906074523 20 127 1.6 11.3 0.00 0.00 0.00 47 1018.0
20260906073030 20 188 1.6 9.7 0.00 0.00 0.00 47 1018.1
20260906071530 20 154 0.0 12.9 0.00 0.00 0.00 47 1018.1
20260906070012 20 136 3.2 11.3 0.00 0.00 0.00 47 1018.2
20260906064503 20 161 1.6 11.3 0.00 0.00 0.00 47 1018.3
20260906063005 20 119 0.0 6.4 0.00 0.00 0.00 47 1018.4
20260906061508 20 117 3.2 9.7 0.00 0.00 0.00 47 1018.4
20260906060008 20 92 1.6 11.3 0.00 0.00 0.00 47 1018.4
20260906054516 21 125 1.6 11.3 0.00 0.00 0.00 47 1018.6
20260906053004 21 80 0.0 9.7 0.00 0.00 0.00 47 1018.6
20260906051505 21 113 0.0 8.0 0.00 0.00 0.00 47 1018.5
20260906050008 21 114 0.0 6.4 0.00 0.00 0.00 47 1018.6
20260906044514 21 113 0.0 4.8 0.00 0.00 0.00 47 1018.9
20260906043027 21 121 0.0 6.4 0.00 0.00 0.00 47 1018.8
20260906041504 21 121 1.6 8.0 0.00 0.00 0.00 47 1018.7
20260906040005 21 133 0.0 4.8 0.00 0.00 0.00 47 1018.7
20260906034508 21 115 1.6 6.4 0.00 0.00 0.00 47 1018.8
20260906033020 21 111 0.0 3.2 0.00 0.00 0.00 47 1018.9
20260906031518 21 113 0.0 1.6 0.00 0.00 0.00 47 1018.8
20260906030004 21 113 0.0 0.0 0.00 0.00 0.00 46 1018.8
20260906024506 22 113 0.0 1.6 0.00 0.00 0.00 46 1018.5
20260906023011 22 113 0.0 0.0 0.00 0.00 0.00 45 1018.2
20260906021516 22 113 0.0 4.8 0.00 0.00 0.00 45 1018.1
20260906020024 22 113 1.6 6.4 0.00 0.00 0.00 45 1017.6
20260906014507 22 138 0.0 6.4 0.00 0.00 0.00 44 1017.4
20260906013008 23 126 0.0 6.4 0.00 0.00 0.00 44 1017.2
20260906011512 23 118 0.0 4.8 0.00 0.00 0.00 43 1017.3
20260906010018 23 155 1.6 9.7 0.00 0.00 0.00 43 1017.3
20260906004523 23 136 1.6 11.3 0.00 0.00 0.00 42 1017.1
20260906003030 23 127 1.6 6.4 0.00 0.00 0.00 42 1017.1
20260906001516 24 114 1.6 6.4 0.00 0.00 0.00 41 1016.9
20260906000034 24 164 3.2 12.9 0.00 0.00 0.00 40 1016.8
20260905234526 24 119 6.4 19.3 0.00 0.00 0.00 40 1016.7
20260905233029 25 149 4.8 9.7 0.00 0.00 0.00 40 1016.8
20260905231533 25 100 4.8 11.3 0.00 0.00 0.00 39 1016.6
20260905230011 25 134 3.2 11.3 0.00 0.00 0.00 38 1016.5
20260905224517 25 132 6.4 16.1 0.00 0.00 0.00 37 1016.4
20260905223028 25 114 3.2 14.5 0.00 0.00 0.00 37 1016.4
20260905221528 25 123 4.8 16.1 0.00 0.00 0.00 36 1016.4
20260905220012 25 89 4.8 14.5 0.00 0.00 0.00 36 1016.4
20260905214518 25 129 1.6 16.1 0.00 0.00 0.00 37 1016.1
20260905213004 25 53 4.8 16.1 0.00 0.00 0.00 37 1016.1
20260905211503 25 183 6.4 17.7 0.00 0.00 0.00 37 1016.2
20260905210008 24 48 6.4 16.1 0.00 0.00 0.00 39 1016.1
20260905204510 24 56 4.8 16.1 0.00 0.00 0.00 39 1016.2
20260905203019 24 61 1.6 12.9 0.00 0.00 0.00 40 1016.4
20260905201508 24 49 3.2 11.3 0.00 0.00 0.00 39 1016.4
20260905200004 24 54 3.2 11.3 0.00 0.00 0.00 39 1016.8
20260905194512 24 36 3.2 11.3 0.00 0.00 0.00 39 1017.0
20260905193015 25 107 4.8 12.9 0.00 0.00 0.00 39 1016.7
20260905191527 25 145 3.2 16.1 0.00 0.00 0.00 39 1017.2
20260905190004 25 96 4.8 14.5 0.00 0.00 0.00 39 1017.5
20260905184522 25 150 1.6 8.0 0.00 0.00 0.00 39 1017.6
20260905183029 25 65 4.8 11.3 0.00 0.00 0.00 40 1017.9
20260905181521 24 115 3.2 9.7 0.00 0.00 0.00 40 1018.2